Year,Month,Day,Hour,Minute,Value (Times are PST for temperature in C)
2015,08,23,00,00,15.40
2015,08,23,00,01,15.40
2015,08,23,00,02,15.40
2015,08,23,00,03,15.40
2015,08,23,00,04,15.40
2015,08,23,00,05,15.40
2015,08,23,00,06,15.40
2015,08,23,00,07,15.40
2015,08,23,00,08,15.40
2015,08,23,00,09,15.40
2015,08,23,00,10,15.40
2015,08,23,00,11,15.40
2015,08,23,00,12,15.30
2015,08,23,00,13,15.30
2015,08,23,00,14,15.30
2015,08,23,00,15,15.30
2015,08,23,00,16,15.30
2015,08,23,00,17,15.30
2015,08,23,00,18,15.20
2015,08,23,00,19,15.20
2015,08,23,00,20,15.20
2015,08,23,00,21,15.20
2015,08,23,00,22,15.20
2015,08,23,00,23,15.20
2015,08,23,00,24,15.20
2015,08,23,00,25,15.20
2015,08,23,00,26,15.20
2015,08,23,00,27,15.20
2015,08,23,00,28,15.20
2015,08,23,00,29,15.20
2015,08,23,00,30,15.20
2015,08,23,00,31,15.20
2015,08,23,00,32,15.20
2015,08,23,00,33,15.20
2015,08,23,00,34,15.20
2015,08,23,00,35,15.20
2015,08,23,00,36,15.20
2015,08,23,00,37,15.20
2015,08,23,00,38,15.20
2015,08,23,00,39,15.20
2015,08,23,00,40,15.20
2015,08,23,00,41,15.20
2015,08,23,00,42,15.20
2015,08,23,00,43,15.10
2015,08,23,00,44,15.10
2015,08,23,00,45,15.10
2015,08,23,00,46,15.10
2015,08,23,00,47,15.10
2015,08,23,00,48,15.10
2015,08,23,00,49,15.10
2015,08,23,00,50,15.10
2015,08,23,00,51,15.10
2015,08,23,00,52,15.10
2015,08,23,00,53,15.10
2015,08,23,00,54,15.10
2015,08,23,00,55,15.00
2015,08,23,00,56,15.00
2015,08,23,00,57,15.00
2015,08,23,00,58,15.00
2015,08,23,00,59,15.00
2015,08,23,01,00,15.00
2015,08,23,01,01,15.00
2015,08,23,01,02,15.00
2015,08,23,01,03,15.00
2015,08,23,01,04,14.90
2015,08,23,01,05,14.90
2015,08,23,01,06,14.90
2015,08,23,01,07,14.90
2015,08,23,01,08,14.90
2015,08,23,01,09,14.90
2015,08,23,01,10,14.90
2015,08,23,01,11,14.90
2015,08,23,01,12,14.90
2015,08,23,01,13,14.90
2015,08,23,01,14,14.80
2015,08,23,01,15,14.80
2015,08,23,01,16,14.80
2015,08,23,01,17,14.80
2015,08,23,01,18,14.80
2015,08,23,01,19,14.80
2015,08,23,01,20,14.80
2015,08,23,01,21,14.80
2015,08,23,01,22,14.80
2015,08,23,01,23,14.80
2015,08,23,01,24,14.80
2015,08,23,01,25,14.80
2015,08,23,01,26,14.80
2015,08,23,01,27,14.80
2015,08,23,01,28,14.80
2015,08,23,01,29,14.80
2015,08,23,01,30,14.80
2015,08,23,01,31,14.80
2015,08,23,01,32,14.80
2015,08,23,01,33,14.80
2015,08,23,01,34,14.80
2015,08,23,01,35,14.80
2015,08,23,01,36,14.80
2015,08,23,01,37,14.80
2015,08,23,01,38,14.80
2015,08,23,01,39,14.80
2015,08,23,01,40,14.80
2015,08,23,01,41,14.80
2015,08,23,01,42,14.80
2015,08,23,01,43,14.80
2015,08,23,01,44,14.80
2015,08,23,01,45,14.80
2015,08,23,01,46,14.80
2015,08,23,01,47,14.80
2015,08,23,01,48,14.80
2015,08,23,01,49,14.80
2015,08,23,01,50,14.80
2015,08,23,01,51,14.80
2015,08,23,01,52,14.80
2015,08,23,01,53,14.80
2015,08,23,01,54,14.80
2015,08,23,01,55,14.80
2015,08,23,01,56,14.80
2015,08,23,01,57,14.80
2015,08,23,01,58,14.80
2015,08,23,01,59,14.80
2015,08,23,02,00,14.80
2015,08,23,02,01,14.80
2015,08,23,02,02,14.70
2015,08,23,02,03,14.70
2015,08,23,02,04,14.80
2015,08,23,02,05,14.80
2015,08,23,02,06,14.80
2015,08,23,02,07,14.80
2015,08,23,02,08,14.80
2015,08,23,02,09,14.80
2015,08,23,02,10,14.80
2015,08,23,02,11,14.70
2015,08,23,02,12,14.70
2015,08,23,02,13,14.70
2015,08,23,02,14,14.70
2015,08,23,02,15,14.70
2015,08,23,02,16,14.70
2015,08,23,02,17,14.70
2015,08,23,02,18,14.70
2015,08,23,02,19,14.70
2015,08,23,02,20,14.70
2015,08,23,02,21,14.70
2015,08,23,02,22,14.70
2015,08,23,02,23,14.70
2015,08,23,02,24,14.70
2015,08,23,02,25,14.70
2015,08,23,02,26,14.70
2015,08,23,02,27,14.70
2015,08,23,02,28,14.60
2015,08,23,02,29,14.60
2015,08,23,02,30,14.60
2015,08,23,02,31,14.60
2015,08,23,02,32,14.60
2015,08,23,02,33,14.60
2015,08,23,02,34,14.60
2015,08,23,02,35,14.60
2015,08,23,02,36,14.60
2015,08,23,02,37,14.60
2015,08,23,02,38,14.60
2015,08,23,02,39,14.60
2015,08,23,02,40,14.60
2015,08,23,02,41,14.60
2015,08,23,02,42,14.60
2015,08,23,02,43,14.50
2015,08,23,02,44,14.50
2015,08,23,02,45,14.50
2015,08,23,02,46,14.50
2015,08,23,02,47,14.50
2015,08,23,02,48,14.50
2015,08,23,02,49,14.50
2015,08,23,02,50,14.50
2015,08,23,02,51,14.50
2015,08,23,02,52,14.40
2015,08,23,02,53,14.40
2015,08,23,02,54,14.40
2015,08,23,02,55,14.40
2015,08,23,02,56,14.40
2015,08,23,02,57,14.40
2015,08,23,02,58,14.40
2015,08,23,02,59,14.40
2015,08,23,03,00,14.40
2015,08,23,03,01,14.40
2015,08,23,03,02,14.40
2015,08,23,04,02,13.90
2015,08,23,04,03,13.90
2015,08,23,04,04,13.90
2015,08,23,04,05,13.90
2015,08,23,04,06,13.90
2015,08,23,04,07,13.90
2015,08,23,04,08,13.90
2015,08,23,04,09,13.90
2015,08,23,04,10,13.80
2015,08,23,04,11,13.80
2015,08,23,04,12,13.80
2015,08,23,04,13,13.80
2015,08,23,04,14,13.80
2015,08,23,04,15,13.80
2015,08,23,04,16,13.80
2015,08,23,04,17,13.80
2015,08,23,04,18,13.80
2015,08,23,04,19,13.70
2015,08,23,04,20,13.70
2015,08,23,04,21,13.70
2015,08,23,04,22,13.70
2015,08,23,04,23,13.70
2015,08,23,04,24,13.70
2015,08,23,04,25,13.70
2015,08,23,04,26,13.70
2015,08,23,04,27,13.70
2015,08,23,04,28,13.70
2015,08,23,04,29,13.70
2015,08,23,04,30,13.70
2015,08,23,04,31,13.70
2015,08,23,04,32,13.60
2015,08,23,04,33,13.70
2015,08,23,04,34,13.70
2015,08,23,04,35,13.70
2015,08,23,04,36,13.70
2015,08,23,04,37,13.70
2015,08,23,04,38,13.70
2015,08,23,04,39,13.70
2015,08,23,04,40,13.70
2015,08,23,04,41,13.70
2015,08,23,04,42,13.80
2015,08,23,04,43,13.80
2015,08,23,04,44,13.80
2015,08,23,04,45,13.80
2015,08,23,04,46,13.80
2015,08,23,04,47,13.80
2015,08,23,04,48,13.80
2015,08,23,04,49,13.80
2015,08,23,04,50,13.80
2015,08,23,04,51,13.80
2015,08,23,04,52,13.70
2015,08,23,04,53,13.70
2015,08,23,04,54,13.70
2015,08,23,04,55,13.70
2015,08,23,04,56,13.70
2015,08,23,04,57,13.70
2015,08,23,04,58,13.70
2015,08,23,04,59,13.70
2015,08,23,05,00,13.70
2015,08,23,05,01,13.60
2015,08,23,05,02,13.60
2015,08,23,05,03,13.60
2015,08,23,05,04,13.60
2015,08,23,05,05,13.60
2015,08,23,05,06,13.60
2015,08,23,05,07,13.60
2015,08,23,05,08,13.60
2015,08,23,05,09,13.60
2015,08,23,05,10,13.70
2015,08,23,05,11,13.70
2015,08,23,05,12,13.70
2015,08,23,05,13,13.70
2015,08,23,05,14,13.70
2015,08,23,05,15,13.70
2015,08,23,05,16,13.70
2015,08,23,05,17,13.70
2015,08,23,05,18,13.70
2015,08,23,05,19,13.70
2015,08,23,05,20,13.70
2015,08,23,05,21,13.70
2015,08,23,05,22,13.70
2015,08,23,05,23,13.70
2015,08,23,05,24,13.80
2015,08,23,05,25,13.80
2015,08,23,05,26,13.90
2015,08,23,05,27,13.90
2015,08,23,05,28,13.90
2015,08,23,05,29,13.90
2015,08,23,05,30,13.90
2015,08,23,05,31,13.90
2015,08,23,05,32,13.90
2015,08,23,05,33,13.90
2015,08,23,05,34,13.90
2015,08,23,05,35,13.90
2015,08,23,05,36,13.90
2015,08,23,05,37,13.90
2015,08,23,05,38,13.90
2015,08,23,05,39,14.00
2015,08,23,05,40,14.00
2015,08,23,05,41,14.00
2015,08,23,05,42,13.90
2015,08,23,05,43,14.00
2015,08,23,05,44,14.00
2015,08,23,05,45,14.00
2015,08,23,05,46,13.90
2015,08,23,05,47,13.90
2015,08,23,05,48,13.90
2015,08,23,05,49,13.90
2015,08,23,05,50,13.90
2015,08,23,05,51,13.90
2015,08,23,05,52,13.90
2015,08,23,05,53,13.80
2015,08,23,05,54,13.80
2015,08,23,05,55,13.80
2015,08,23,05,56,13.80
2015,08,23,05,57,13.80
2015,08,23,05,58,13.80
2015,08,23,05,59,13.80
2015,08,23,06,00,13.80
2015,08,23,06,01,13.80
2015,08,23,06,02,13.80
2015,08,23,06,03,13.80
2015,08,23,06,04,13.80
2015,08,23,06,05,13.70
2015,08,23,06,06,13.70
2015,08,23,06,07,13.70
2015,08,23,06,08,13.70
2015,08,23,06,09,13.70
2015,08,23,06,10,13.70
2015,08,23,06,11,13.70
2015,08,23,06,12,13.60
2015,08,23,06,13,13.60
2015,08,23,06,14,13.60
2015,08,23,06,15,13.60
2015,08,23,06,16,13.60
2015,08,23,06,17,13.60
2015,08,23,06,18,13.60
2015,08,23,06,19,13.50
2015,08,23,06,20,13.50
2015,08,23,06,21,13.50
2015,08,23,06,22,13.50
2015,08,23,06,23,13.50
2015,08,23,06,24,13.50
2015,08,23,06,25,13.50
2015,08,23,06,26,13.50
2015,08,23,06,27,13.50
2015,08,23,06,28,13.50
2015,08,23,06,29,13.50
2015,08,23,06,30,13.50
2015,08,23,06,31,13.50
2015,08,23,06,32,13.40
2015,08,23,06,33,13.40
2015,08,23,06,34,13.50
2015,08,23,06,35,13.60
2015,08,23,06,36,13.60
2015,08,23,06,37,13.60
2015,08,23,06,38,13.60
2015,08,23,06,39,13.60
2015,08,23,06,40,13.60
2015,08,23,06,41,13.60
2015,08,23,06,42,13.60
2015,08,23,06,43,13.60
2015,08,23,06,44,13.60
2015,08,23,06,45,13.60
2015,08,23,06,46,13.60
2015,08,23,06,47,13.50
2015,08,23,06,48,13.50
2015,08,23,06,49,13.50
2015,08,23,06,50,13.50
2015,08,23,06,51,13.50
2015,08,23,06,52,13.50
2015,08,23,06,53,13.50
2015,08,23,06,54,13.50
2015,08,23,06,55,13.50
2015,08,23,06,56,13.50
2015,08,23,06,57,13.50
2015,08,23,06,58,13.50
2015,08,23,06,59,13.40
2015,08,23,07,00,13.40
2015,08,23,07,01,13.40
2015,08,23,07,02,13.40
2015,08,23,07,03,13.40
2015,08,23,07,04,13.40
2015,08,23,07,05,13.40
2015,08,23,07,06,13.50
2015,08,23,07,07,13.50
2015,08,23,07,08,13.50
2015,08,23,07,09,13.50
2015,08,23,07,10,13.50
2015,08,23,07,11,13.50
2015,08,23,07,12,13.60
2015,08,23,07,13,13.60
2015,08,23,07,14,13.70
2015,08,23,07,15,13.70
2015,08,23,07,16,13.70
2015,08,23,07,17,13.70
2015,08,23,07,18,13.80
2015,08,23,07,19,13.80
2015,08,23,07,20,13.90
2015,08,23,07,21,13.90
2015,08,23,07,22,14.00
2015,08,23,07,23,14.00
2015,08,23,07,24,14.10
2015,08,23,07,25,14.10
2015,08,23,07,26,14.10
2015,08,23,07,27,14.10
2015,08,23,07,28,14.20
2015,08,23,07,29,14.20
2015,08,23,07,30,14.20
2015,08,23,07,31,14.30
2015,08,23,07,32,14.30
2015,08,23,07,33,14.30
2015,08,23,07,34,14.40
2015,08,23,07,35,14.40
2015,08,23,07,36,14.40
2015,08,23,07,37,14.40
2015,08,23,07,38,14.50
2015,08,23,07,39,14.50
2015,08,23,07,40,14.50
2015,08,23,07,41,14.60
2015,08,23,07,42,14.60
2015,08,23,07,43,14.70
2015,08,23,07,44,14.70
2015,08,23,07,45,14.80
2015,08,23,07,46,14.80
2015,08,23,07,47,14.90
2015,08,23,07,48,15.00
2015,08,23,07,49,15.00
2015,08,23,07,50,15.10
2015,08,23,07,51,15.10
2015,08,23,07,52,15.20
2015,08,23,07,53,15.20
2015,08,23,07,54,15.20
2015,08,23,07,55,15.30
2015,08,23,07,56,15.40
2015,08,23,07,57,15.40
2015,08,23,07,58,15.50
2015,08,23,07,59,15.60
2015,08,23,08,00,15.60
2015,08,23,08,01,15.70
2015,08,23,08,02,15.70
2015,08,23,08,03,15.80
2015,08,23,08,04,15.80
2015,08,23,08,05,15.90
2015,08,23,08,06,16.00
2015,08,23,08,07,16.00
2015,08,23,08,08,16.10
2015,08,23,08,09,16.20
2015,08,23,08,10,16.20
2015,08,23,08,11,16.30
2015,08,23,08,12,16.30
2015,08,23,08,13,16.30
2015,08,23,08,14,16.40
2015,08,23,08,15,16.40
2015,08,23,08,16,16.50
2015,08,23,08,17,16.50
2015,08,23,08,18,16.60
2015,08,23,08,19,16.60
2015,08,23,08,20,16.70
2015,08,23,08,21,16.70
2015,08,23,08,22,16.70
2015,08,23,08,23,16.80
2015,08,23,08,24,16.80
2015,08,23,08,25,16.80
2015,08,23,08,26,16.80
2015,08,23,08,27,16.80
2015,08,23,08,28,16.90
2015,08,23,08,29,16.90
2015,08,23,08,30,16.90
2015,08,23,08,31,16.90
2015,08,23,08,32,17.00
2015,08,23,08,33,17.00
2015,08,23,08,34,17.00
2015,08,23,08,35,17.10
2015,08,23,08,36,17.10
2015,08,23,08,37,17.10
2015,08,23,08,38,17.10
2015,08,23,08,39,17.10
2015,08,23,08,40,17.10
2015,08,23,08,41,17.20
2015,08,23,08,42,17.20
2015,08,23,08,43,17.20
2015,08,23,08,44,17.30
2015,08,23,08,45,17.30
2015,08,23,08,46,17.30
2015,08,23,08,47,17.30
2015,08,23,08,48,17.40
2015,08,23,08,49,17.40
2015,08,23,08,50,17.40
2015,08,23,08,51,17.50
2015,08,23,08,52,17.50
2015,08,23,08,53,17.60
2015,08,23,08,54,17.70
2015,08,23,08,55,17.70
2015,08,23,08,56,17.80
2015,08,23,08,57,17.80
2015,08,23,08,58,17.80
2015,08,23,08,59,17.90
2015,08,23,09,00,17.90
2015,08,23,09,01,17.90
2015,08,23,09,02,18.00
2015,08,23,09,03,18.10
2015,08,23,09,04,18.10
2015,08,23,09,05,18.20
2015,08,23,09,06,18.20
2015,08,23,09,07,18.30
2015,08,23,09,08,18.30
2015,08,23,09,09,18.40
2015,08,23,09,10,18.40
2015,08,23,09,11,18.40
2015,08,23,09,12,18.50
2015,08,23,09,13,18.50
2015,08,23,09,14,18.60
2015,08,23,09,15,18.60
2015,08,23,09,16,18.60
2015,08,23,09,17,18.60
2015,08,23,09,18,18.60
2015,08,23,09,19,18.60
2015,08,23,09,20,18.60
2015,08,23,09,21,18.60
2015,08,23,09,22,18.60
2015,08,23,09,23,18.70
2015,08,23,09,24,18.60
2015,08,23,09,25,18.60
2015,08,23,09,26,18.70
2015,08,23,09,27,18.70
2015,08,23,09,28,18.70
2015,08,23,09,29,18.60
2015,08,23,09,30,18.60
2015,08,23,09,31,18.60
2015,08,23,09,32,18.70
2015,08,23,09,33,18.70
2015,08,23,09,34,18.80
2015,08,23,09,35,18.70
2015,08,23,09,36,18.80
2015,08,23,09,37,18.80
2015,08,23,09,38,18.90
2015,08,23,09,39,18.90
2015,08,23,09,40,19.00
2015,08,23,09,41,19.00
2015,08,23,09,42,19.10
2015,08,23,09,43,19.10
2015,08,23,09,44,19.20
2015,08,23,09,45,19.20
2015,08,23,09,46,19.20
2015,08,23,09,47,19.20
2015,08,23,09,48,19.20
2015,08,23,09,49,19.30
2015,08,23,09,50,19.30
2015,08,23,09,51,19.40
2015,08,23,09,52,19.40
2015,08,23,09,53,19.40
2015,08,23,09,54,19.50
2015,08,23,09,55,19.50
2015,08,23,09,56,19.60
2015,08,23,09,57,19.60
2015,08,23,09,58,19.60
2015,08,23,09,59,19.60
2015,08,23,10,00,19.60
2015,08,23,10,01,19.60
2015,08,23,10,02,19.60
2015,08,23,10,03,19.60
2015,08,23,10,04,19.50
2015,08,23,10,05,19.40
2015,08,23,10,06,19.40
2015,08,23,10,07,19.40
2015,08,23,10,08,19.50
2015,08,23,10,09,19.50
2015,08,23,10,10,19.50
2015,08,23,10,11,19.50
2015,08,23,10,12,19.60
2015,08,23,10,13,19.70
2015,08,23,10,14,19.80
2015,08,23,10,15,19.80
2015,08,23,10,16,19.80
2015,08,23,10,17,19.80
2015,08,23,10,18,19.80
2015,08,23,10,19,19.80
2015,08,23,10,20,19.80
2015,08,23,10,21,19.90
2015,08,23,10,22,20.00
2015,08,23,10,23,20.10
2015,08,23,10,24,20.10
2015,08,23,10,25,20.20
2015,08,23,10,26,20.20
2015,08,23,10,27,20.20
2015,08,23,10,28,20.30
2015,08,23,10,29,20.30
2015,08,23,10,30,20.40
2015,08,23,10,31,20.40
2015,08,23,10,32,20.40
2015,08,23,10,33,20.50
2015,08,23,10,34,20.50
2015,08,23,10,35,20.50
2015,08,23,10,36,20.50
2015,08,23,10,37,20.40
2015,08,23,10,38,20.40
2015,08,23,10,39,20.40
2015,08,23,10,40,20.40
2015,08,23,10,41,20.40
2015,08,23,10,42,20.50
2015,08,23,10,43,20.60
2015,08,23,10,44,20.60
2015,08,23,10,45,20.70
2015,08,23,10,46,20.80
2015,08,23,10,47,20.90
2015,08,23,10,48,21.00
2015,08,23,10,49,21.10
2015,08,23,10,50,21.20
2015,08,23,10,51,21.10
2015,08,23,10,52,21.10
2015,08,23,10,53,21.10
2015,08,23,10,54,21.00
2015,08,23,10,55,21.00
2015,08,23,10,56,21.00
2015,08,23,10,57,21.10
2015,08,23,10,58,21.20
2015,08,23,10,59,21.20
2015,08,23,11,00,21.30
2015,08,23,11,01,21.30
2015,08,23,11,02,21.40
2015,08,23,11,03,21.40
2015,08,23,11,04,21.40
2015,08,23,11,05,21.50
2015,08,23,11,06,21.50
2015,08,23,11,07,21.60
2015,08,23,11,08,21.60
2015,08,23,11,09,21.60
2015,08,23,11,10,21.60
2015,08,23,11,11,21.60
2015,08,23,11,12,21.60
2015,08,23,11,13,21.60
2015,08,23,11,14,21.60
2015,08,23,11,15,21.50
2015,08,23,11,16,21.50
2015,08,23,11,17,21.50
2015,08,23,11,18,21.60
2015,08,23,11,19,21.60
2015,08,23,11,20,21.60
2015,08,23,11,21,21.60
2015,08,23,11,22,21.60
2015,08,23,11,23,21.60
2015,08,23,11,24,21.60
2015,08,23,11,25,21.60
2015,08,23,11,26,21.60
2015,08,23,11,27,21.70
2015,08,23,11,28,21.70
2015,08,23,11,29,21.70
2015,08,23,11,30,21.70
2015,08,23,11,31,21.80
2015,08,23,11,32,21.80
2015,08,23,11,33,21.80
2015,08,23,11,34,21.90
2015,08,23,11,35,22.00
2015,08,23,11,36,22.10
2015,08,23,11,37,22.10
2015,08,23,11,38,22.10
2015,08,23,11,39,22.10
2015,08,23,11,40,22.10
2015,08,23,11,41,22.10
2015,08,23,11,42,22.10
2015,08,23,11,43,22.10
2015,08,23,11,44,22.10
2015,08,23,11,45,22.20
2015,08,23,11,46,22.20
2015,08,23,11,47,22.30
2015,08,23,11,48,22.30
2015,08,23,11,49,22.40
2015,08,23,11,50,22.30
2015,08,23,11,51,22.30
2015,08,23,11,52,22.30
2015,08,23,11,53,22.30
2015,08,23,11,54,22.30
2015,08,23,11,55,22.30
2015,08,23,11,56,22.30
2015,08,23,11,57,22.40
2015,08,23,11,58,22.50
2015,08,23,11,59,22.60
2015,08,23,12,00,22.60
2015,08,23,12,01,22.70
2015,08,23,12,02,22.70
2015,08,23,12,03,22.80
2015,08,23,12,04,22.80
2015,08,23,12,05,22.80
2015,08,23,12,06,22.80
2015,08,23,12,07,22.80
2015,08,23,12,08,22.70
2015,08,23,12,09,22.80
2015,08,23,12,10,22.80
2015,08,23,12,11,22.80
2015,08,23,12,12,22.80
2015,08,23,12,13,22.90
2015,08,23,12,14,22.90
2015,08,23,12,15,22.80
2015,08,23,12,16,22.70
2015,08,23,12,17,22.70
2015,08,23,12,18,22.70
2015,08,23,12,19,22.70
2015,08,23,12,20,22.70
2015,08,23,12,21,22.70
2015,08,23,12,22,22.70
2015,08,23,12,23,22.70
2015,08,23,12,24,22.80
2015,08,23,12,25,22.80
2015,08,23,12,26,22.80
2015,08,23,12,27,22.80
2015,08,23,12,28,22.80
2015,08,23,12,29,22.80
2015,08,23,12,30,22.80
2015,08,23,12,31,22.80
2015,08,23,12,32,22.80
2015,08,23,12,33,22.80
2015,08,23,12,34,22.80
2015,08,23,12,35,22.80
2015,08,23,12,36,22.80
2015,08,23,12,37,22.90
2015,08,23,12,38,23.00
2015,08,23,12,39,23.20
2015,08,23,12,40,23.30
2015,08,23,12,41,23.50
2015,08,23,12,42,23.60
2015,08,23,12,43,23.70
2015,08,23,12,44,23.80
2015,08,23,12,45,23.80
2015,08,23,12,46,23.80
2015,08,23,12,47,23.80
2015,08,23,12,48,23.80
2015,08,23,12,49,23.80
2015,08,23,12,50,23.80
2015,08,23,12,51,23.80
2015,08,23,12,52,23.80
2015,08,23,12,53,23.80
2015,08,23,12,54,23.70
2015,08,23,12,55,23.70
2015,08,23,12,56,23.70
2015,08,23,12,57,23.70
2015,08,23,12,58,23.60
2015,08,23,12,59,23.70
2015,08,23,13,00,23.70
2015,08,23,13,01,23.80
2015,08,23,13,02,23.80
2015,08,23,13,03,23.80
2015,08,23,13,04,23.90
2015,08,23,13,05,23.80
2015,08,23,13,06,23.80
2015,08,23,13,07,23.80
2015,08,23,13,08,23.80
2015,08,23,13,09,23.70
2015,08,23,13,10,23.70
2015,08,23,13,11,23.70
2015,08,23,13,12,23.80
2015,08,23,13,13,23.80
2015,08,23,13,14,23.80
2015,08,23,13,15,23.80
2015,08,23,13,16,23.80
2015,08,23,13,17,23.80
2015,08,23,13,18,23.90
2015,08,23,13,19,23.90
2015,08,23,13,20,24.00
2015,08,23,13,21,24.10
2015,08,23,13,22,24.10
2015,08,23,13,23,24.20
2015,08,23,13,24,24.30
2015,08,23,13,25,24.30
2015,08,23,13,26,24.40
2015,08,23,13,27,24.40
2015,08,23,13,28,24.40
2015,08,23,13,29,24.40
2015,08,23,13,30,24.40
2015,08,23,13,31,24.40
2015,08,23,13,32,24.40
2015,08,23,13,33,24.40
2015,08,23,13,34,24.40
2015,08,23,13,35,24.40
2015,08,23,13,36,24.40
2015,08,23,13,37,24.40
2015,08,23,13,38,24.30
2015,08,23,13,39,24.30
2015,08,23,13,40,24.30
2015,08,23,13,41,24.30
2015,08,23,13,42,24.30
2015,08,23,13,43,24.30
2015,08,23,13,44,24.30
2015,08,23,13,45,24.20
2015,08,23,13,46,24.10
2015,08,23,13,47,24.00
2015,08,23,13,48,23.90
2015,08,23,13,49,23.90
2015,08,23,13,50,23.80
2015,08,23,13,51,23.70
2015,08,23,13,52,23.80
2015,08,23,13,53,23.80
2015,08,23,13,54,23.90
2015,08,23,13,55,24.00
2015,08,23,13,56,24.10
2015,08,23,13,57,24.10
2015,08,23,13,58,24.10
2015,08,23,13,59,24.10
2015,08,23,14,00,24.20
2015,08,23,14,01,24.30
2015,08,23,14,02,24.30
2015,08,23,14,03,24.40
2015,08,23,14,04,24.40
2015,08,23,14,05,24.50
2015,08,23,14,06,24.60
2015,08,23,14,07,24.50
2015,08,23,14,08,24.40
2015,08,23,14,09,24.30
2015,08,23,14,10,24.30
2015,08,23,14,11,24.30
2015,08,23,14,12,24.30
2015,08,23,14,13,24.20
2015,08,23,14,14,24.20
2015,08,23,14,15,24.20
2015,08,23,14,16,24.20
2015,08,23,14,17,24.20
2015,08,23,14,18,24.30
2015,08,23,14,19,24.40
2015,08,23,14,20,24.50
2015,08,23,14,21,24.50
2015,08,23,14,22,24.60
2015,08,23,14,23,24.70
2015,08,23,14,24,24.70
2015,08,23,14,25,24.80
2015,08,23,14,26,25.00
2015,08,23,14,27,25.10
2015,08,23,14,28,25.20
2015,08,23,14,29,25.20
2015,08,23,14,30,25.30
2015,08,23,14,31,25.30
2015,08,23,14,32,25.40
2015,08,23,14,33,25.40
2015,08,23,14,34,25.40
2015,08,23,14,35,25.40
2015,08,23,14,36,25.50
2015,08,23,14,37,25.50
2015,08,23,14,38,25.60
2015,08,23,14,39,25.50
2015,08,23,14,40,25.40
2015,08,23,14,41,25.40
2015,08,23,14,42,25.40
2015,08,23,14,43,25.40
2015,08,23,14,44,25.40
2015,08,23,14,45,25.40
2015,08,23,14,46,25.40
2015,08,23,14,47,25.40
2015,08,23,14,48,25.40
2015,08,23,14,49,25.40
2015,08,23,14,50,25.40
2015,08,23,14,51,25.50
2015,08,23,14,52,25.50
2015,08,23,14,53,25.50
2015,08,23,14,54,25.60
2015,08,23,14,55,25.60
2015,08,23,14,56,25.70
2015,08,23,14,57,25.60
2015,08,23,14,58,25.60
2015,08,23,14,59,25.60
2015,08,23,15,00,25.60
2015,08,23,15,01,25.60
2015,08,23,15,02,25.60
2015,08,23,15,03,25.60
2015,08,23,15,04,25.60
2015,08,23,15,05,25.60
2015,08,23,15,06,25.60
2015,08,23,15,07,25.70
2015,08,23,15,08,25.70
2015,08,23,15,09,25.80
2015,08,23,15,10,25.80
2015,08,23,15,11,25.90
2015,08,23,15,12,25.90
2015,08,23,15,13,26.00
2015,08,23,15,14,26.10
2015,08,23,15,15,26.10
2015,08,23,15,16,26.00
2015,08,23,15,17,25.90
2015,08,23,15,18,25.80
2015,08,23,15,19,25.80
2015,08,23,15,20,25.90
2015,08,23,15,21,25.90
2015,08,23,15,22,25.90
2015,08,23,15,23,25.90
2015,08,23,15,24,25.90
2015,08,23,15,25,25.80
2015,08,23,15,26,25.80
2015,08,23,15,27,25.80
2015,08,23,15,28,25.90
2015,08,23,15,29,25.90
2015,08,23,15,30,25.90
2015,08,23,15,31,25.90
2015,08,23,15,32,25.80
2015,08,23,15,33,25.80
2015,08,23,15,34,25.80
2015,08,23,15,35,25.90
2015,08,23,15,36,25.90
2015,08,23,15,37,25.90
2015,08,23,15,38,25.90
2015,08,23,15,39,25.90
2015,08,23,15,40,25.90
2015,08,23,15,41,26.00
2015,08,23,15,42,26.00
2015,08,23,15,43,26.00
2015,08,23,15,44,26.10
2015,08,23,15,45,26.10
2015,08,23,15,46,26.10
2015,08,23,15,47,26.10
2015,08,23,15,48,26.10
2015,08,23,15,49,26.10
2015,08,23,15,50,26.20
2015,08,23,15,51,26.20
2015,08,23,15,52,26.20
2015,08,23,15,53,26.20
2015,08,23,15,54,26.10
2015,08,23,15,55,26.10
2015,08,23,15,56,26.10
2015,08,23,15,57,26.00
2015,08,23,15,58,26.00
2015,08,23,15,59,26.00
2015,08,23,16,00,26.00
2015,08,23,16,01,26.10
2015,08,23,16,02,26.00
2015,08,23,16,03,26.00
2015,08,23,16,04,26.00
2015,08,23,16,05,26.00
2015,08,23,16,06,26.00
2015,08,23,16,07,26.00
2015,08,23,16,08,26.10
2015,08,23,16,09,26.10
2015,08,23,16,10,26.10
2015,08,23,16,11,26.00
2015,08,23,16,12,26.00
2015,08,23,16,13,26.00
2015,08,23,16,14,26.00
2015,08,23,16,15,26.10
2015,08,23,16,16,26.10
2015,08,23,16,17,26.00
2015,08,23,16,18,26.00
2015,08,23,16,19,25.90
2015,08,23,16,20,25.90
2015,08,23,16,21,25.90
2015,08,23,16,22,25.90
2015,08,23,16,23,26.00
2015,08,23,16,24,26.00
2015,08,23,16,25,26.10
2015,08,23,16,26,26.20
2015,08,23,16,27,26.30
2015,08,23,16,28,26.30
2015,08,23,16,29,26.40
2015,08,23,16,30,26.40
2015,08,23,16,31,26.30
2015,08,23,16,32,26.30
2015,08,23,16,33,26.30
2015,08,23,16,34,26.30
2015,08,23,16,35,26.20
2015,08,23,16,36,26.00
2015,08,23,16,37,25.80
2015,08,23,16,38,25.60
2015,08,23,16,39,25.30
2015,08,23,16,40,25.00
2015,08,23,16,41,24.90
2015,08,23,16,42,24.80
2015,08,23,16,43,24.80
2015,08,23,16,44,24.70
2015,08,23,16,45,24.60
2015,08,23,16,46,24.60
2015,08,23,16,47,24.50
2015,08,23,16,48,24.50
2015,08,23,16,49,24.50
2015,08,23,16,50,24.60
2015,08,23,16,51,24.60
2015,08,23,16,52,24.60
2015,08,23,16,53,24.70
2015,08,23,16,54,24.80
2015,08,23,16,55,24.90
2015,08,23,16,56,24.90
2015,08,23,16,57,24.80
2015,08,23,16,58,24.70
2015,08,23,16,59,24.60
2015,08,23,17,00,24.60
2015,08,23,17,01,24.60
2015,08,23,17,02,24.60
2015,08,23,17,03,24.60
2015,08,23,17,04,24.60
2015,08,23,17,05,24.50
2015,08,23,17,06,24.50
2015,08,23,17,07,24.50
2015,08,23,17,08,24.60
2015,08,23,17,09,24.60
2015,08,23,17,10,24.60
2015,08,23,17,11,24.70
2015,08,23,17,12,24.70
2015,08,23,17,13,24.70
2015,08,23,17,14,24.70
2015,08,23,17,15,24.60
2015,08,23,17,16,24.60
2015,08,23,17,17,24.50
2015,08,23,17,18,24.40
2015,08,23,17,19,24.50
2015,08,23,17,20,24.50
2015,08,23,17,21,24.60
2015,08,23,17,22,24.60
2015,08,23,17,23,24.70
2015,08,23,17,24,24.70
2015,08,23,17,25,24.70
2015,08,23,17,26,24.80
2015,08,23,17,27,24.80
2015,08,23,17,28,24.80
2015,08,23,17,29,24.70
2015,08,23,17,30,24.60
2015,08,23,17,31,24.60
2015,08,23,17,32,24.50
2015,08,23,17,33,24.50
2015,08,23,17,34,24.40
2015,08,23,17,35,24.40
2015,08,23,17,36,24.40
2015,08,23,17,37,24.40
2015,08,23,17,38,24.40
2015,08,23,17,39,24.50
2015,08,23,17,40,24.50
2015,08,23,17,41,24.50
2015,08,23,17,42,24.60
2015,08,23,17,43,24.60
2015,08,23,17,44,24.60
2015,08,23,17,45,24.60
2015,08,23,17,46,24.60
2015,08,23,17,47,24.60
2015,08,23,17,48,24.70
2015,08,23,17,49,24.70
2015,08,23,17,50,24.70
2015,08,23,17,51,24.70
2015,08,23,17,52,24.70
2015,08,23,17,53,24.80
2015,08,23,17,54,24.70
2015,08,23,17,55,24.60
2015,08,23,17,56,24.40
2015,08,23,17,57,24.20
2015,08,23,17,58,24.00
2015,08,23,17,59,23.90
2015,08,23,18,00,23.80
2015,08,23,18,01,23.80
2015,08,23,18,02,23.70
2015,08,23,18,03,23.60
2015,08,23,18,04,23.50
2015,08,23,18,05,23.50
2015,08,23,18,06,23.50
2015,08,23,18,07,23.60
2015,08,23,18,08,23.70
2015,08,23,18,09,23.70
2015,08,23,18,10,23.70
2015,08,23,18,11,23.70
2015,08,23,18,12,23.70
2015,08,23,18,13,23.60
2015,08,23,18,14,23.60
2015,08,23,18,15,23.50
2015,08,23,18,16,23.40
2015,08,23,18,17,23.40
2015,08,23,18,18,23.40